Location: Delettes
(50.6178°N, 2.2123°E)
Time: 10:02:47
(UTC+00:00)

Cosmos 2142 Rocket - Pass Details

Date: 27 February 2020
Orbit: 954 x 1004 km, 83.0° (Epoch: 04 April)

Event Time Altitude Azimuth Distance (km) Brightness Sun altitude
Exits shadow 20:30:19 78° 187° (S) 992 4.4 -29.1°
Maximum altitude 20:30:48 90° 123° (ESE) 973 4.3 -29.1°
Drops below altitude 10° 20:37:05 10° 10° (N) 2,732 7.0 -30.0°
Sets 20:39:37 0° 10° (N) 3,691 7.7 -30.4°
